Location: Commenchon
(49.6411°N, 3.1571°E)
Time: 20:39:28
(UTC+00:00)

Cosmos 1980 - Pass Details

Date: 15 May 2026
Orbit: 838 x 845 km, 71.0° (Epoch: 6 June)

Event Time Altitude Azimuth Distance (km) Brightness Sun altitude
Rises 22:40:07 0° 333° (NNW) 3,407 8.4 -19.9°
Reaches altitude 10° 22:42:39 10° 338° (NNW) 2,469 7.3 -20.0°
Maximum altitude 22:48:09 50° 54° (NE) 1,068 4.3 -20.2°
Enters shadow 22:51:12 25° 118° (ESE) 1,632 4.8 -20.3°
